[[{"header":{"parameterUnit":"m.s-1","parameterCategory":1,"la1":30.2991,"la2":30.254,"lo1":-89.0895,"lo2":-89.0444,"dy":0.0017,"dx":0.0017,"nx":28,"ny":28,"refTime":"2025-07-10T21:00:00:Z","depth":0,"parameterNumber":2,"parameterNumberName":"U-component_of_WINDS"},"data":[0,0,0,0,0,0,0,0,0,0,0,0,0,0,0,0,0,0,0,0,0,0,0,0,0,0,0,0,0,0,0,0,0,0,0,0,0,0,0,0,0,0,0,0,0,0,0,0,0,0,0,0,0,0,0,0,0,0,3.4683,3.4683,0,3.4735,3.4736,3.4736,3.4663,3.466,3.4658,3.4655,3.471,3.4714,3.4718,0,0,0,0,0,0,0,0,0,0,0,0,0,3.4519,3.4523,3.4683,3.4683,3.4684,3.4735,3.4736,3.4736,3.4663,3.466,3.4657,3.4654,3.4709,3.4713,3.4718,0,0,0,0,0,0,0,0,0,0,0,0,0,3.4583,3.4524,3.4683,3.4654,3.4652,3.4735,3.4736,3.4737,3.4664,3.466,3.4656,3.4653,3.4707,3.4713,3.4719,3.4833,0,0,3.4737,3.4739,0,0,0,0,0,0,0,0,3.4579,3.4589,3.4657,3.4656,3.4654,3.4688,3.4698,3.4769,3.4665,3.4659,3.4655,3.4651,3.4706,3.4712,3.473,3.4836,3.4838,3.4737,3.4741,3.4743,3.4745,0,0,0,0,0,0,0,3.4575,3.4586,3.4703,3.4658,3.4656,3.4638,3.4643,3.4711,3.4704,3.466,3.4654,3.4662,3.4704,3.4725,3.4731,3.4839,3.4737,3.4742,3.4746,3.4748,3.5039,3.5043,0,0,0,0,0,0,3.4574,3.4583,3.4702,3.4705,3.4606,3.4644,3.4649,3.4681,3.4703,3.4703,3.4665,3.4658,3.4717,3.4724,3.4733,3.4866,3.4743,3.4749,3.4752,3.5035,3.504,3.5044,0,0,0,0,0,0,3.4571,3.4585,3.47,3.4643,3.4656,3.4651,3.4687,3.4684,3.4705,3.4707,3.4706,3.4687,3.4714,3.4724,3.4808,3.4867,3.4751,3.4757,3.503,3.5036,3.5042,3.5136,0,0,0,0,0,0,3.4567,3.4585,3.4628,3.4644,3.4659,3.4775,3.4691,3.4688,3.4715,3.4706,3.4727,3.4727,3.4712,3.48,3.4814,3.4873,3.4761,3.5024,3.5033,3.504,3.5127,3.5144,3.5159,0,0,0,0,0,3.4561,3.4653,3.4631,3.4645,3.4713,3.4778,3.4787,3.4766,3.472,3.4763,3.4765,3.4727,3.4859,3.4809,3.4824,3.4886,3.502,3.503,3.5039,3.512,3.5141,3.5159,0,0,0,0,0,0,3.4645,3.4655,3.463,3.473,3.4754,3.4765,3.482,3.479,3.4827,3.4818,3.4792,3.4797,3.4886,3.4895,3.4839,3.4997,3.4932,3.4945,3.4988,3.5008,3.5024,3.5019,3.4766,0,0,0,0,0,3.4675,3.4727,3.4732,3.482,3.4833,3.4825,3.4852,3.4835,3.4858,3.4868,3.4875,3.49,3.4946,3.4978,3.5021,3.5129,3.5131,3.5179,3.5195,3.5208,3.5219,3.5274,3.5295,3.5075,3.5075,3.5075,0,0,3.4738,3.475,3.4784,3.4837,3.4853,3.4907,3.4834,3.4894,3.4933,3.4877,3.4956,3.4962,3.4988,3.5083,3.5126,3.5093,3.528,3.522,3.523,3.5234,3.5286,3.5307,3.5325,3.5082,3.5081,3.508,0,0,3.4879,3.4894,3.4968,3.4985,3.501,3.5004,3.5022,3.5038,3.504,3.5118,3.5077,3.5123,3.5205,3.5224,3.5245,3.5393,3.5358,3.5408,3.549,3.5545,3.5562,3.5577,3.5628,3.5647,3.5419,3.5419,3.542,0,3.4954,3.5033,3.501,3.5072,3.5096,3.5047,3.5121,3.514,3.5178,3.5196,3.5159,3.5259,3.5273,3.5371,3.5407,3.5426,3.5445,3.5405,3.5562,3.5577,3.559,3.5639,3.5658,3.5425,3.5424,3.5424,3.5423,0,3.5123,3.5178,3.5235,3.5272,3.5302,3.5371,3.5357,3.5392,3.5371,3.5369,3.5449,3.5464,3.5508,3.5531,3.5512,3.5626,3.5605,3.5566,3.5499,3.5617,3.5662,3.5681,3.5433,3.5431,3.5429,3.5428,0,0,3.5318,3.5341,3.5362,3.5377,3.5401,3.5443,3.5509,3.5552,3.5581,3.5609,3.5663,3.5732,3.5695,3.5719,3.5702,3.575,3.5864,3.5704,3.5704,3.5732,3.5989,3.6017,3.6039,3.5842,3.5845,3.5848,3.5986,0,3.5458,3.557,3.5551,3.566,3.571,3.5664,3.5721,3.5742,3.5741,3.5783,3.5783,3.5832,3.578,3.5794,3.5839,3.584,3.5915,3.583,3.5891,3.5893,3.5884,3.6063,3.6093,3.6222,3.6003,3.6006,3.6009,0,3.5635,3.5669,3.5783,3.5797,3.5817,3.5869,3.5906,3.5947,3.5969,3.5965,3.5991,3.5965,3.603,3.5964,3.6052,3.5995,3.6019,3.6023,3.6028,3.6031,3.5957,3.6069,3.6263,3.6282,3.6036,3.6034,3.6032,0,3.5764,3.5838,3.5915,3.593,3.5949,3.5986,3.5996,3.6014,3.6041,3.6074,3.609,3.6131,3.6153,3.6184,3.6169,3.6123,3.626,3.6193,3.6258,3.6258,3.6288,3.6286,3.6487,3.6306,3.6306,3.6306,3.6305,0,3.5921,3.5992,3.5973,3.602,3.6098,3.6075,3.6153,3.6158,3.6174,3.6221,3.6185,3.623,3.6208,3.6252,3.6241,3.6315,3.6326,3.6324,3.632,3.6326,3.6326,3.634,3.633,3.6311,3.631,3.6309,3.6308,0,3.6078,3.6068,3.6148,3.6159,3.6164,3.6221,3.623,3.6274,3.627,3.6331,3.6343,3.6338,3.6387,3.6375,3.643,3.6422,3.6515,3.6501,3.6507,3.6503,3.6568,3.6561,3.6783,3.681,3.6614,3.6616,3.6618,0,3.6178,3.6231,3.6247,3.6276,3.6288,3.6335,3.6361,3.6341,3.637,3.6399,3.6439,3.6485,3.652,3.6601,3.6602,3.6643,3.6628,3.6703,3.6634,3.6638,3.6627,3.6623,3.6627,3.6716,3.6718,3.672,3.6722,0,3.6355,3.6347,3.6387,3.6425,3.6457,3.6486,3.6511,3.6537,3.6518,3.6553,3.6602,3.663,3.6684,3.6729,3.6767,3.6777,3.6746,3.6744,3.676,3.6766,3.6767,3.6766,3.6543,3.6738,3.6737,3.6735,3.6734,3.6734,3.6485,3.653,3.6548,3.6593,3.6609,3.6634,3.6675,3.6676,3.6717,3.6759,3.6744,3.68,3.682,3.6867,3.6882,3.6925,3.6897,3.6922,3.6927,3.6933,3.694,3.6762,3.6932,3.6931,3.6931,3.6931,3.693,0,3.666,3.6669,3.671,3.6746,3.6781,3.6749,3.6775,3.6806,3.6856,3.6877,3.6912,3.6968,3.7011,3.7015,3.7056,3.709,3.7077,3.7101,3.7098,3.71,3.6964,3.6945,3.7111,3.7111,3.7111,3.7111,3.7111,3.7111,3.6754,3.6827,3.6822,3.6902,3.6911,3.6965,3.6982,3.7004,3.702,3.7084,3.712,3.7122,3.7135,3.7177,3.7215,3.7215,3.7231,3.7261,3.7256,3.7128,3.711,3.7093,3.7074,3.7265,3.7265,3.7387,3.7389,3.7389]},{"header":{"parameterUnit":"m.s-1","parameterCategory":1,"la1":30.2991,"la2":30.254,"lo1":-89.0895,"lo2":-89.0444,"dy":0.0017,"dx":0.0017,"nx":28,"ny":28,"refTime":"2025-07-10T21:00:00:Z","depth":0,"parameterNumber":3,"parameterNumberName":"V-component_of_WINDS"},"data":[0,0,0,0,0,0,0,0,0,0,0,0,0,0,0,0,0,0,0,0,0,0,0,0,0,0,0,0,0,0,0,0,0,0,0,0,0,0,0,0,0,0,0,0,0,0,0,0,0,0,0,0,0,0,0,0,0,0,0.3785,0.3785,0,0.377,0.377,0.377,0.3726,0.3725,0.3724,0.3723,0.3709,0.371,0.371,0,0,0,0,0,0,0,0,0,0,0,0,0,0.3776,0.3777,0.3785,0.3785,0.3785,0.377,0.377,0.377,0.3726,0.3725,0.3724,0.3723,0.3709,0.371,0.371,0,0,0,0,0,0,0,0,0,0,0,0,0,0.3773,0.3777,0.3785,0.3761,0.3759,0.377,0.377,0.377,0.3727,0.3725,0.3724,0.3722,0.3709,0.371,0.3711,0.3744,0,0,0.3713,0.3713,0,0,0,0,0,0,0,0,0.3773,0.3773,0.3765,0.3763,0.376,0.3749,0.3762,0.3761,0.3727,0.3739,0.3723,0.3722,0.3724,0.3723,0.3724,0.3744,0.3743,0.3713,0.3713,0.3714,0.3714,0,0,0,0,0,0,0,0.3773,0.3774,0.3779,0.3765,0.3762,0.3752,0.3749,0.3762,0.374,0.3738,0.3735,0.3733,0.3722,0.3723,0.3723,0.3743,0.3713,0.3714,0.3714,0.3714,0.379,0.3791,0,0,0,0,0,0,0.3777,0.3774,0.378,0.3779,0.3763,0.3753,0.375,0.3754,0.3739,0.3736,0.3735,0.3731,0.3722,0.3722,0.3722,0.3761,0.3714,0.3715,0.3715,0.3788,0.379,0.3792,0,0,0,0,0,0,0.3777,0.3778,0.378,0.3776,0.3775,0.3755,0.3759,0.3754,0.3755,0.3737,0.3733,0.374,0.3721,0.3721,0.3739,0.376,0.3715,0.3716,0.3786,0.3789,0.3791,0.3839,0,0,0,0,0,0,0.3777,0.3778,0.3791,0.3776,0.3775,0.3797,0.376,0.3755,0.3756,0.3752,0.374,0.3737,0.372,0.3738,0.374,0.376,0.3716,0.3784,0.3787,0.379,0.3835,0.3843,0.3849,0,0,0,0,0,0.3777,0.3805,0.3791,0.3792,0.3791,0.3799,0.3798,0.3778,0.3758,0.3771,0.3759,0.3737,0.3757,0.374,0.3742,0.3763,0.3783,0.3787,0.379,0.3832,0.3841,0.3849,0,0,0,0,0,0,0.3823,0.3803,0.3787,0.3812,0.3807,0.3791,0.3806,0.3788,0.3789,0.3785,0.3759,0.3757,0.3779,0.3772,0.3754,0.3795,0.3767,0.3771,0.3798,0.3807,0.3813,0.3815,0.3717,0,0,0,0,0,0.3836,0.3844,0.3825,0.3849,0.3847,0.3827,0.383,0.3814,0.3809,0.3807,0.3796,0.3792,0.3797,0.3801,0.3805,0.3834,0.3831,0.3849,0.3856,0.3861,0.3865,0.3881,0.3889,0.3803,0.3803,0.3803,0,0,0.3863,0.3852,0.3859,0.3858,0.3852,0.3862,0.3826,0.3837,0.3844,0.3809,0.3825,0.3817,0.3811,0.3834,0.3844,0.383,0.3888,0.3866,0.387,0.3871,0.3885,0.3893,0.39,0.3805,0.3805,0.3805,0,0,0.3917,0.3909,0.3928,0.3923,0.3916,0.3902,0.3907,0.3893,0.3887,0.3902,0.3876,0.3884,0.3893,0.389,0.3889,0.3942,0.3922,0.3943,0.3979,0.3994,0.4001,0.4006,0.4026,0.4033,0.3947,0.3947,0.3947,0,0.3951,0.3964,0.394,0.3953,0.3953,0.3921,0.394,0.3937,0.3931,0.3932,0.3916,0.3927,0.392,0.3943,0.3955,0.3956,0.3961,0.3945,0.4001,0.4007,0.4012,0.403,0.4038,0.395,0.395,0.3949,0.3949,0,0.4007,0.4016,0.4032,0.4027,0.4029,0.4045,0.4024,0.4029,0.4013,0.4001,0.4018,0.4009,0.401,0.4014,0.3999,0.4035,0.4026,0.4006,0.3977,0.4024,0.404,0.4047,0.3954,0.3953,0.3952,0.3952,0,0,0.4091,0.4072,0.4078,0.4075,0.4064,0.4071,0.4085,0.4086,0.4091,0.4088,0.41,0.4108,0.4089,0.4089,0.4073,0.4086,0.4129,0.4064,0.4064,0.4077,0.4168,0.4184,0.4193,0.4115,0.4116,0.4117,0.4169,0,0.4142,0.4166,0.4145,0.4172,0.4181,0.415,0.4163,0.4157,0.4147,0.4152,0.414,0.4147,0.4122,0.4121,0.4133,0.4121,0.4147,0.4117,0.4127,0.4127,0.4131,0.4201,0.4218,0.4268,0.4176,0.4177,0.4177,0,0.4206,0.4205,0.4234,0.4221,0.4223,0.4235,0.4234,0.424,0.4233,0.4224,0.4224,0.4204,0.4218,0.4189,0.4207,0.4188,0.419,0.4185,0.4186,0.4188,0.4156,0.4205,0.4283,0.4291,0.4187,0.4187,0.4186,0,0.4265,0.4271,0.4289,0.4287,0.4272,0.4281,0.4276,0.4267,0.4269,0.4269,0.427,0.4271,0.4272,0.4273,0.4255,0.4235,0.4276,0.4246,0.427,0.4271,0.4281,0.4281,0.4361,0.4281,0.4281,0.4281,0.4281,0,0.4326,0.4344,0.4315,0.4327,0.4347,0.4322,0.4343,0.4334,0.4327,0.4336,0.431,0.4319,0.4293,0.43,0.4285,0.4303,0.4303,0.4297,0.4293,0.43,0.4301,0.4302,0.4299,0.4283,0.4282,0.4282,0.4282,0,0.4396,0.4377,0.4394,0.4378,0.4375,0.439,0.4377,0.4387,0.4374,0.4386,0.4387,0.4368,0.4374,0.4355,0.4359,0.4349,0.4375,0.4365,0.4378,0.4375,0.4401,0.4399,0.4486,0.4496,0.4409,0.4409,0.441,0,0.4436,0.445,0.4435,0.4439,0.4434,0.4441,0.4443,0.4419,0.4422,0.4416,0.4427,0.4431,0.4433,0.4444,0.4431,0.4433,0.4424,0.4454,0.4424,0.4431,0.4425,0.4425,0.4427,0.4461,0.4462,0.4462,0.4463,0,0.451,0.45,0.4503,0.4503,0.4506,0.4505,0.4502,0.4507,0.4482,0.4487,0.4493,0.4494,0.4498,0.4502,0.4502,0.4496,0.4476,0.4472,0.4478,0.4486,0.4493,0.4491,0.4396,0.4471,0.447,0.447,0.4469,0.4469,0.4566,0.4577,0.4569,0.4573,0.4569,0.4567,0.4575,0.4564,0.4568,0.4569,0.4554,0.4564,0.4557,0.4554,0.455,0.4557,0.4543,0.4552,0.4554,0.4557,0.4562,0.4491,0.4557,0.4557,0.4556,0.4556,0.4556,0,0.464,0.4632,0.4637,0.4634,0.4638,0.4617,0.4613,0.4618,0.4626,0.4621,0.4623,0.4631,0.4635,0.4621,0.4624,0.4632,0.4623,0.4634,0.4633,0.4633,0.4573,0.4568,0.4641,0.4641,0.4641,0.4641,0.4641,0.4641,0.4678,0.4696,0.4685,0.47,0.4692,0.4701,0.47,0.4698,0.4694,0.4703,0.4707,0.4697,0.4689,0.4691,0.4694,0.469,0.4692,0.4707,0.47,0.4645,0.4637,0.4629,0.4624,0.4707,0.4707,0.4758,0.4759,0.4759]}]]